• In Österreich
  • Länderverzeichnis
  • Für 7 Tage
  • Wassertemperatur
  • Satellitenkarten
  • Wetterkarte
  • News
  • Widgets
  • user-avatar
    Anmelden

    Stündliche Wetter Tekkeköy

    Heute, 18 Oktober, Donnerstag

    Zeit Temperatur Niederschläge Wind Luftdruck Luftfeuchtigkeit
    00:00 +19°C° 0 mm 1 m/S 755 mmHg 92%
    01:00 +19°C° 0 mm 1 m/S 755 mmHg 90%
    02:00 +19°C° 0 mm 1 m/S 755 mmHg 88%
    03:00 +19°C° 0 mm 1 m/S 755 mmHg 86%
    04:00 +19°C° 0 mm 1 m/S 755 mmHg 85%
    05:00 +19°C° 0 mm 1 m/S 755 mmHg 83%
    06:00 +20°C° 0 mm 1 m/S 755 mmHg 76%
    07:00 +22°C° 0 mm 1 m/S 755 mmHg 69%
    08:00 +22°C° 0 mm 0 m/S 755 mmHg 62%
    09:00 +25°C° 0 mm 1 m/S 755 mmHg 56%
    10:00 +27°C° 0 mm 1 m/S 754 mmHg 50%
    11:00 +29°C° 0 mm 1 m/S 754 mmHg 44%
    12:00 +29°C° 0 mm 2 m/S 754 mmHg 46%
    13:00 +29°C° 0 mm 2 m/S 754 mmHg 47%
    14:00 +29°C° 0 mm 2 m/S 753 mmHg 48%
    15:00 +27°C° 0 mm 2 m/S 753 mmHg 58%
    16:00 +25°C° 0 mm 2 m/S 753 mmHg 69%
    17:00 +21°C° 0 mm 2 m/S 753 mmHg 79%
    18:00 +22°C° 0 mm 1 m/S 753 mmHg 81%
    19:00 +21°C° 0 mm 1 m/S 754 mmHg 83%
    20:00 +21°C° 0 mm 1 m/S 754 mmHg 85%
    21:00 +19°C° 0 mm 0 m/S 754 mmHg 84%
    22:00 +19°C° 0 mm 0 m/S 754 mmHg 83%
    23:00 +18°C° 0 mm 0 m/S 754 mmHg 82%

    Morgen, 19 Oktober, Freitag

    Zeit Temperatur Niederschläge Wind Luftdruck Luftfeuchtigkeit
    00:00 +18°C° 0 mm 0 m/S 754 mmHg 80%
    01:00 +18°C° 0 mm 0 m/S 754 mmHg 79%
    02:00 +18°C° 0 mm 0 m/S 754 mmHg 77%
    03:00 +18°C° 0 mm 0 m/S 754 mmHg 76%
    04:00 +20°C° 0 mm 1 m/S 754 mmHg 75%
    05:00 +20°C° 0 mm 1 m/S 754 mmHg 73%
    06:00 +21°C° 0 mm 1 m/S 754 mmHg 68%
    07:00 +23°C° 0 mm 1 m/S 754 mmHg 63%
    08:00 +24°C° 0 mm 1 m/S 755 mmHg 58%
    09:00 +26°C° 0 mm 1 m/S 754 mmHg 54%
    10:00 +27°C° 0 mm 1 m/S 754 mmHg 49%
    11:00 +29°C° 0 mm 1 m/S 754 mmHg 45%
    12:00 +28°C° 0 mm 2 m/S 754 mmHg 47%
    13:00 +28°C° 0 mm 2 m/S 753 mmHg 49%
    14:00 +28°C° 0 mm 2 m/S 753 mmHg 51%
    15:00 +26°C° 0 mm 2 m/S 753 mmHg 62%
    16:00 +24°C° 0 mm 2 m/S 753 mmHg 72%
    17:00 +22°C° 0 mm 1 m/S 753 mmHg 83%
    18:00 +21°C° 0.1 mm 1 m/S 754 mmHg 86%
    19:00 +21°C° 0.1 mm 1 m/S 754 mmHg 89%
    20:00 +19°C° 0.1 mm 2 m/S 754 mmHg 92%
    21:00 +19°C° 0.4 mm 2 m/S 754 mmHg 91%
    22:00 +19°C° 0.4 mm 2 m/S 754 mmHg 90%
    23:00 +19°C° 0.4 mm 2 m/S 754 mmHg 89%

    übermorgen, 20 Oktober, Samstag

    Zeit Temperatur Niederschläge Wind Luftdruck Luftfeuchtigkeit
    00:00 +20°C° 0.5 mm 1 m/S 754 mmHg 89%
    01:00 +20°C° 0.5 mm 1 m/S 754 mmHg 88%
    02:00 +20°C° 0.5 mm 1 m/S 754 mmHg 87%
    03:00 +20°C° 0.2 mm 1 m/S 754 mmHg 88%
    04:00 +19°C° 0.2 mm 1 m/S 754 mmHg 89%
    05:00 +19°C° 0.2 mm 1 m/S 754 mmHg 90%
    06:00 +20°C° 0.1 mm 1 m/S 754 mmHg 87%
    07:00 +21°C° 0.1 mm 1 m/S 754 mmHg 84%
    08:00 +21°C° 0.1 mm 2 m/S 754 mmHg 81%
    09:00 +23°C° 0 mm 2 m/S 754 mmHg 75%
    10:00 +24°C° 0 mm 2 m/S 754 mmHg 70%
    11:00 +25°C° 0 mm 2 m/S 754 mmHg 65%
    12:00 +25°C° 0 mm 3 m/S 753 mmHg 66%
    13:00 +25°C° 0 mm 3 m/S 753 mmHg 67%
    14:00 +25°C° 0 mm 3 m/S 753 mmHg 67%
    15:00 +24°C° 0.1 mm 3 m/S 753 mmHg 75%
    16:00 +21°C° 0.1 mm 3 m/S 753 mmHg 82%
    17:00 +20°C° 0.1 mm 3 m/S 753 mmHg 90%
    18:00 +20°C° 0.3 mm 3 m/S 753 mmHg 91%
    19:00 +19°C° 0.3 mm 3 m/S 753 mmHg 92%
    20:00 +19°C° 0.3 mm 2 m/S 753 mmHg 93%
    21:00 +19°C° 0.6 mm 2 m/S 753 mmHg 94%
    22:00 +19°C° 0.6 mm 2 m/S 753 mmHg 94%
    23:00 +19°C° 0.6 mm 2 m/S 753 mmHg 95%

    21 Oktober, Sonntag

    Zeit Temperatur Niederschläge Wind Luftdruck Luftfeuchtigkeit
    00:00 +18°C° 0.5 mm 2 m/S 753 mmHg 95%
    01:00 +18°C° 0.5 mm 2 m/S 753 mmHg 95%
    02:00 +18°C° 0.5 mm 2 m/S 753 mmHg 95%
    03:00 +18°C° 0.4 mm 2 m/S 753 mmHg 95%
    04:00 +18°C° 0.4 mm 2 m/S 753 mmHg 96%
    05:00 +18°C° 0.4 mm 2 m/S 752 mmHg 96%
    06:00 +18°C° 0.3 mm 2 m/S 753 mmHg 95%
    07:00 +18°C° 0.3 mm 2 m/S 753 mmHg 93%
    08:00 +19°C° 0.3 mm 2 m/S 753 mmHg 92%
    09:00 +19°C° 0.2 mm 2 m/S 753 mmHg 90%
    10:00 +20°C° 0.2 mm 3 m/S 752 mmHg 87%
    11:00 +20°C° 0.2 mm 3 m/S 752 mmHg 85%
    12:00 +20°C° 0.1 mm 3 m/S 752 mmHg 85%
    13:00 +20°C° 0.1 mm 3 m/S 751 mmHg 85%
    14:00 +20°C° 0.1 mm 4 m/S 751 mmHg 85%
    15:00 +19°C° 0.2 mm 3 m/S 751 mmHg 88%
    16:00 +19°C° 0.2 mm 3 m/S 751 mmHg 91%
    17:00 +18°C° 0.2 mm 3 m/S 751 mmHg 93%
    18:00 +18°C° 0.2 mm 2 m/S 751 mmHg 94%
    19:00 +18°C° 0.2 mm 2 m/S 751 mmHg 94%
    20:00 +18°C° 0.2 mm 2 m/S 751 mmHg 94%
    21:00 +18°C° 0.4 mm 2 m/S 751 mmHg 94%
    22:00 +18°C° 0.4 mm 2 m/S 751 mmHg 95%
    23:00 +17°C° 0.4 mm 2 m/S 751 mmHg 95%

    22 Oktober, Montag

    Zeit Temperatur Niederschläge Wind Luftdruck Luftfeuchtigkeit
    00:00 +17°C° 0.6 mm 2 m/S 750 mmHg 95%
    01:00 +17°C° 0.6 mm 3 m/S 750 mmHg 95%
    02:00 +17°C° 0.6 mm 3 m/S 750 mmHg 96%
    03:00 +17°C° 1 mm 3 m/S 750 mmHg 96%
    04:00 +17°C° 1 mm 3 m/S 750 mmHg 96%
    05:00 +17°C° 1 mm 3 m/S 750 mmHg 96%
    06:00 +17°C° 1.3 mm 3 m/S 750 mmHg 95%
    07:00 +17°C° 1.3 mm 2 m/S 750 mmHg 94%
    08:00 +17°C° 1.3 mm 2 m/S 750 mmHg 93%
    09:00 +18°C° 0.2 mm 2 m/S 750 mmHg 88%
    10:00 +19°C° 0.2 mm 3 m/S 751 mmHg 83%
    11:00 +20°C° 0.2 mm 3 m/S 751 mmHg 78%
    12:00 +20°C° 0.5 mm 4 m/S 751 mmHg 78%
    13:00 +19°C° 0.5 mm 4 m/S 751 mmHg 78%
    14:00 +19°C° 0.5 mm 4 m/S 751 mmHg 78%
    15:00 +18°C° 0 mm 4 m/S 751 mmHg 81%
    16:00 +18°C° 0 mm 3 m/S 752 mmHg 84%
    17:00 +17°C° 0 mm 2 m/S 752 mmHg 86%
    18:00 +16°C° 0 mm 2 m/S 752 mmHg 88%
    19:00 +16°C° 0 mm 1 m/S 752 mmHg 89%
    20:00 +16°C° 0 mm 1 m/S 753 mmHg 91%
    21:00 +15°C° 0 mm 1 m/S 752 mmHg 91%
    22:00 +15°C° 0 mm 1 m/S 752 mmHg 92%
    23:00 +15°C° 0 mm 1 m/S 752 mmHg 92%

    23 Oktober, Dienstag

    Zeit Temperatur Niederschläge Wind Luftdruck Luftfeuchtigkeit
    00:00 +15°C° 0 mm 1 m/S 752 mmHg 92%
    01:00 +15°C° 0 mm 1 m/S 752 mmHg 91%
    02:00 +15°C° 0 mm 1 m/S 752 mmHg 91%
    03:00 +15°C° 0 mm 1 m/S 752 mmHg 90%
    04:00 +15°C° 0 mm 1 m/S 752 mmHg 90%
    05:00 +15°C° 0 mm 1 m/S 751 mmHg 90%
    06:00 +16°C° 0 mm 1 m/S 751 mmHg 85%
    07:00 +18°C° 0 mm 1 m/S 751 mmHg 81%
    08:00 +19°C° 0 mm 1 m/S 751 mmHg 77%
    09:00 +21°C° 0.1 mm 1 m/S 751 mmHg 70%
    10:00 +23°C° 0.1 mm 1 m/S 750 mmHg 64%
    11:00 +24°C° 0.1 mm 1 m/S 750 mmHg 58%
    12:00 +25°C° 0.1 mm 2 m/S 750 mmHg 59%
    13:00 +25°C° 0.1 mm 2 m/S 749 mmHg 61%
    14:00 +25°C° 0.1 mm 2 m/S 749 mmHg 62%
    15:00 +23°C° 0.2 mm 2 m/S 749 mmHg 71%
    16:00 +21°C° 0.2 mm 2 m/S 749 mmHg 80%
    17:00 +19°C° 0.2 mm 2 m/S 749 mmHg 89%
    18:00 +20°C° 0.4 mm 1 m/S 749 mmHg 90%
    19:00 +20°C° 0.4 mm 1 m/S 749 mmHg 91%
    20:00 +19°C° 0.4 mm 1 m/S 749 mmHg 92%
    21:00 +19°C° 0.1 mm 1 m/S 748 mmHg 91%
    22:00 +19°C° 0.1 mm 1 m/S 748 mmHg 89%
    23:00 +18°C° 0.1 mm 1 m/S 748 mmHg 88%
    Mehr zeigen